Location: Starlight Observatory
(38.4029°N, 85.8936°W)
Time: 03:28:34
(UTC-05:00)

Amateur Radio Satellites - All Passes

Search period start: 05 December 2016 02:58
Search period end: 06 December 2016 02:58
Location: Starlight Observatory, 38.4029°N, 85.8936°W

Satellite Date Start Highest point End Downlink Frequencies (MHz)
Time Altitude Azimuth
ITAMSAT 1 05 Dec 03:02:47 03:07:01 25° 95° (E) 03:11:12 435.822/435.867
SWISSCUBE 05 Dec 03:11:20 03:15:42 35° 262° (W) 03:20:04 437.505
BEESAT 05 Dec 03:15:30 03:19:53 36° 262° (W) 03:24:16 436.000
O/OREOS (USA 219) 05 Dec 03:20:48 03:25:03 44° 254° (WSW) 03:29:17 437.305
GONETS M04 05 Dec 03:26:30 03:32:52 22° 293° (WNW) 03:39:15
KKS-1 05 Dec 03:35:29 03:39:32 35° 71° (ENE) 03:43:37 437.445
PHONESAT 2.4 05 Dec 03:36:51 03:39:26 50° 357° (N) 03:42:02 2401.200-2431.200
AUBIESAT-1 05 Dec 03:39:52 03:41:24 12° 266° (W) 03:42:59 437.475
ITUPSAT 1 05 Dec 03:43:25 03:46:52 20° 266° (W) 03:50:20 437.325
STARS 05 Dec 03:45:51 03:49:11 21° 67° (ENE) 03:52:32 437.465
Cosmos 2499 05 Dec 03:58:31 04:01:42 12° 302° (WNW) 04:04:55 435.465 / 435.565
Gurwin Techsat 1B 05 Dec 04:02:51 04:06:44 21° 295° (WNW) 04:10:36 435.225
AO-85 05 Dec 04:05:31 04:09:19 22° 311° (NW) 04:12:56 145.980
CUBESAT XI-V 05 Dec 04:31:51 04:36:13 45° 73° (ENE) 04:40:36 437.345
MOZHAYETS 4 05 Dec 04:33:31 04:37:10 23° 265° (W) 04:40:50
ITAMSAT 1 05 Dec 04:41:48 04:46:31 36° 291° (WNW) 04:51:12 435.822/435.867
AO-7 05 Dec 04:46:45 04:55:10 86° 289° (WNW) 05:03:33 29.400- 29.500
YUBILEINY 05 Dec 05:07:26 05:12:02 15° 62° (ENE) 05:16:37 435.215
PHONESAT 2.4 05 Dec 05:12:10 05:14:49 84° 10° (N) 05:17:28 2401.200-2431.200
KKS-1 05 Dec 05:12:56 05:16:10 20° 266° (W) 05:19:26 437.445
SO-50 05 Dec 05:13:50 05:17:53 31° 51° (NE) 05:21:50 436.795
BRITE-PL 05 Dec 05:18:11 05:23:09 35° 97° (E) 05:28:17 437.365/2234.400
STARS 05 Dec 05:21:19 05:25:18 33° 262° (W) 05:29:20 437.465
BEESAT 3 05 Dec 05:55:39 05:59:32 85° 300° (WNW) 06:03:29 437.485
STRAND 1 05 Dec 06:04:23 06:07:44 18° 64° (ENE) 06:11:05 437.568
CUTE-I 05 Dec 06:07:34 06:11:37 22° 94° (E) 06:15:37 437.470
NOAA 18 05 Dec 06:08:09 06:10:43 13° 91° (E) 06:13:15 137.9125
CUBESAT XI-V 05 Dec 06:11:01 06:13:48 16° 268° (W) 06:16:36 437.345
LilacSat-2 05 Dec 06:11:03 06:13:55 20° 95° (E) 06:16:44 437.200
HORYU 2 05 Dec 06:18:23 06:22:50 80° 284° (WNW) 06:27:14 437.375
BEESAT 2 05 Dec 06:22:14 06:26:09 84° 120° (ESE) 06:30:09 435.950
RS-15 05 Dec 06:25:47 06:34:05 23° 99° (E) 06:42:37 29.354- 29.394
Cubesat XI-IV 05 Dec 06:32:29 06:37:24 37° 98° (E) 06:42:18 437.490
NOAA 15 05 Dec 06:33:27 06:38:28 42° 99° (E) 06:43:27 137.62
GOMX 1 05 Dec 06:37:58 06:43:29 87° 103° (ESE) 06:48:59 467.674
AIST 1 05 Dec 06:38:17 06:40:55 15° 72° (ENE) 06:43:32
AO-7 05 Dec 06:41:23 06:46:46 19° 308° (NW) 06:52:09 29.400- 29.500
PHONESAT 2.4 05 Dec 06:47:50 06:49:51 19° 209° (SSW) 06:51:51 2401.200-2431.200
SO-50 05 Dec 06:54:27 06:58:12 26° 248° (WSW) 07:01:54 436.795
DOVE 4 05 Dec 06:54:30 06:59:43 54° 99° (E) 07:04:45 437.250
Cosmos 2504 05 Dec 06:56:47 07:04:50 38° 73° (ENE) 07:12:26 435.465 / 435.565
BRITE-PL 05 Dec 06:56:48 07:01:27 30° 291° (WNW) 07:06:17 437.365/2234.400
YUBILEINY 05 Dec 07:01:28 07:10:20 79° 82° (E) 07:19:11 435.215
Cosmos 2491 05 Dec 07:26:28 07:35:05 64° 92° (E) 07:43:42 435.465 / 435.565
CANX-2 05 Dec 07:29:53 07:32:48 18° 94° (E) 07:35:42 2200.000
STRAND 1 05 Dec 07:41:25 07:46:27 54° 260° (W) 07:51:29 437.568
LilacSat-2 05 Dec 07:45:05 07:48:08 23° 290° (WNW) 07:51:10 437.200
NOAA 18 05 Dec 07:46:21 07:51:53 74° 286° (WNW) 07:57:22 137.9125
CUTE-I 05 Dec 07:46:47 07:51:49 43° 289° (WNW) 07:56:48 437.470
PRISM 05 Dec 07:55:59 07:57:41 12° 64° (ENE) 07:59:22 437.425
SEEDS 05 Dec 07:57:21 08:00:34 21° 95° (E) 08:03:46 437.485
BEESAT 2 05 Dec 08:03:36 08:04:30 11° 318° (NW) 08:05:26 435.950
COMPASS 1 05 Dec 08:10:00 08:13:02 19° 94° (E) 08:16:04 437.405
Cubesat XI-IV 05 Dec 08:12:54 08:17:16 26° 294° (WNW) 08:21:38 437.490
NOAA 15 05 Dec 08:13:53 08:17:56 23° 295° (WNW) 08:22:00 137.62
HO-68 05 Dec 08:14:32 08:21:35 54° 101° (ESE) 08:28:35 435.675
AIST 1 05 Dec 08:14:33 08:18:41 41° 268° (W) 08:22:49
GOMX 1 05 Dec 08:18:28 08:20:46 13° 298° (WNW) 08:23:04 467.674
CINEMA 3 05 Dec 08:21:10 08:26:00 78° 285° (WNW) 08:30:36 145.822/145.860
RS-15 05 Dec 08:33:07 08:44:52 87° 300° (WNW) 08:57:14 29.354- 29.394
DOVE 4 05 Dec 08:33:19 08:36:53 19° 295° (WNW) 08:40:24 437.250
AIST 2 05 Dec 08:39:56 08:43:57 58° 117° (ESE) 08:48:03 435.215
ZACube-1 05 Dec 08:39:56 08:42:04 14° 91° (E) 08:44:11 437.345
CUBEBUG 2 05 Dec 08:46:24 08:50:38 46° 99° (E) 08:54:43 437.445
CUTE 1.7 + AOD 2 05 Dec 08:46:48 08:50:59 64° 285° (WNW) 08:55:09 437.475
FUNcube-1 05 Dec 08:47:55 08:50:26 15° 92° (E) 08:52:56 145.935
Cosmos 2504 05 Dec 08:50:06 08:58:16 45° 272° (W) 09:06:01 435.465 / 435.565
YUBILEINY 05 Dec 09:00:14 09:06:03 20° 281° (W) 09:11:52 435.215
CANX-2 05 Dec 09:04:55 09:08:42 33° 289° (WNW) 09:12:30 2200.000
AAUSAT CUBESAT 2 05 Dec 09:15:20 09:19:29 89° 264° (W) 09:23:38 437.432
Oscar 11 05 Dec 09:18:45 09:22:43 35° 98° (E) 09:26:38 145.826/435.025
Cosmos 2491 05 Dec 09:25:28 09:32:31 26° 291° (WNW) 09:39:35 435.465 / 435.565
PRISM 05 Dec 09:28:34 09:32:30 50° 260° (W) 09:36:29 437.425
UWE-3 05 Dec 09:30:58 09:35:19 85° 281° (W) 09:39:30 435.000/436.395/437.385
SEEDS 05 Dec 09:32:39 09:36:14 28° 290° (WNW) 09:39:48 437.485
UNISAT 6 05 Dec 09:42:24 09:46:50 44° 73° (ENE) 09:51:17 437.425
COMPASS 1 05 Dec 09:44:57 09:48:35 30° 289° (WNW) 09:52:14 437.405
CUSAT 1 05 Dec 10:01:52 10:05:17 65° 99° (E) 10:08:07 437.405
HO-68 05 Dec 10:02:57 10:08:52 29° 298° (WNW) 10:14:47 435.675
TIGRISAT 05 Dec 10:12:25 10:17:07 87° 80° (E) 10:21:49 435.000
ANTELSAT 05 Dec 10:13:38 10:18:20 86° 257° (WSW) 10:23:01 437.575/2403.000
ZACube-1 05 Dec 10:14:34 10:18:36 43° 287° (WNW) 10:22:32 437.345
HUMSAT D 05 Dec 10:15:26 10:18:54 27° 96° (E) 10:22:22 437.325/437.525
AIST 2 05 Dec 10:20:26 10:22:48 15° 315° (NW) 10:25:11 435.215
DELFI C3 05 Dec 10:22:35 10:26:34 70° 102° (ESE) 10:30:32 145.870
FUNcube-1 05 Dec 10:22:56 10:26:50 38° 288° (WNW) 10:30:40 145.935
CUBEBUG 2 05 Dec 10:24:19 10:26:49 15° 295° (WNW) 10:29:15 437.445
NANOSAT C BR1 05 Dec 10:34:20 10:36:52 16° 66° (ENE) 10:39:24 145.865
DANDE 05 Dec 10:36:49 10:41:37 45° 97° (E) 10:45:17 436.750
QB50P2 05 Dec 10:38:35 10:41:42 20° 68° (ENE) 10:44:50 145.880/145.840
POLYITAN 1 05 Dec 10:39:14 10:42:17 19° 67° (ENE) 10:45:20 437.675
JAS-2 05 Dec 10:42:59 10:49:08 43° 71° (ENE) 10:54:37 435.910
RS-15 05 Dec 10:49:09 10:59:20 31° 326° (NNW) 11:09:50 29.354- 29.394
QB50P1 05 Dec 10:52:00 10:55:32 26° 69° (ENE) 10:59:06 145.935-145.965
Oscar 11 05 Dec 10:55:34 10:58:34 19° 293° (WNW) 11:01:33 145.826/435.025
DUCHIFAT 1 05 Dec 10:55:58 10:59:25 24° 69° (ENE) 11:02:53 145.980
AO-85 05 Dec 10:57:37 11:00:45 22° 49° (NE) 11:03:48 145.980
POPSAT HIP 1 05 Dec 11:12:49 11:16:52 43° 73° (ENE) 11:20:57 437.405
ESTCUBE 1 05 Dec 11:14:05 11:17:07 18° 93° (E) 11:20:09 437.505/2401.250
UNISAT 6 05 Dec 11:20:38 11:23:42 17° 267° (W) 11:26:47 437.425
GONETS M04 05 Dec 11:39:02 11:46:47 34° 72° (ENE) 11:54:30
HUMSAT D 05 Dec 11:51:16 11:54:22 21° 291° (WNW) 11:57:27 437.325/437.525
Cosmos 2499 05 Dec 11:52:07 12:00:16 44° 75° (ENE) 12:07:50 435.465 / 435.565
CUBEBUG 1 05 Dec 11:52:23 11:56:12 28° 96° (E) 12:00:00 437.445
BUGSAT 1 05 Dec 11:55:55 11:59:55 43° 73° (ENE) 12:03:58 437.445
50 SAT 05 Dec 11:59:37 12:01:44 15° 94° (E) 12:03:50 437.505
VELOX 1 05 Dec 12:01:05 12:04:38 23° 95° (E) 12:08:09 145.980
NANOSAT C BR1 05 Dec 12:08:09 12:12:12 43° 261° (W) 12:16:18 145.865
PCSat 05 Dec 12:11:40 12:17:04 81° 117° (ESE) 12:22:31 145.827
QB50P2 05 Dec 12:13:24 12:17:15 32° 263° (W) 12:21:08 145.880/145.840
POLYITAN 1 05 Dec 12:13:53 12:17:48 34° 262° (W) 12:21:44 437.675
Oscar 19 05 Dec 12:14:40 12:18:12 19° 64° (ENE) 12:21:47 437.125/150
DX 1 05 Dec 12:17:46 12:20:47 18° 94° (E) 12:23:46 434.975-435.025
DANDE 05 Dec 12:22:28 12:24:09 12° 284° (WNW) 12:25:42 436.750
UKube-1 05 Dec 12:26:50 12:29:35 16° 94° (E) 12:32:19 .
QB50P1 05 Dec 12:27:43 12:31:13 24° 264° (W) 12:34:45 145.935-145.965
JAS-2 05 Dec 12:28:41 12:34:13 28° 263° (W) 12:39:18 435.910
DUCHIFAT 1 05 Dec 12:31:25 12:34:59 26° 264° (W) 12:38:34 145.980
JUGNU 05 Dec 12:36:45 12:38:06 11° 173° (S) 12:39:27 437.505
AO-85 05 Dec 12:37:44 12:41:08 28° 246° (WSW) 12:44:29 145.980
SPROUT 05 Dec 12:40:16 12:44:20 40° 98° (E) 12:48:21 437.525
ESTCUBE 1 05 Dec 12:49:51 12:54:03 40° 288° (WNW) 12:58:16 437.505/2401.250
POPSAT HIP 1 05 Dec 12:50:27 12:52:50 15° 268° (W) 12:55:14 437.405
AISAT 05 Dec 12:59:44 13:04:13 73° 284° (WNW) 13:08:39 437.250
RS-15 05 Dec 13:09:50 13:17:44 18° 2° (N) 13:25:39 29.354- 29.394
CUBEBUG 1 05 Dec 13:28:44 13:32:21 25° 291° (WNW) 13:35:57 437.445
50 SAT 05 Dec 13:31:59 13:35:03 28° 288° (WNW) 13:38:07 437.505
BUGSAT 1 05 Dec 13:33:12 13:35:30 14° 268° (W) 13:37:47 437.445
GONETS M04 05 Dec 13:35:32 13:43:46 49° 271° (W) 13:52:02
VELOX 1 05 Dec 13:37:10 13:41:04 30° 290° (WNW) 13:44:57 145.980
Gurwin Techsat 1B 05 Dec 13:41:29 13:46:45 66° 74° (ENE) 13:52:02 435.225
Cosmos 2499 05 Dec 13:45:35 13:53:08 37° 275° (W) 14:00:15 435.465 / 435.565
Oscar 19 05 Dec 13:52:11 13:57:08 49° 260° (W) 14:02:06 437.125/150
DX 1 05 Dec 13:53:00 13:57:04 37° 289° (WNW) 14:01:06 434.975-435.025
AO-7 05 Dec 13:53:47 14:00:06 25° 56° (NE) 14:06:26 29.400- 29.500
PCSat 05 Dec 13:57:48 14:01:07 16° 315° (NW) 14:04:27 145.827
UKube-1 05 Dec 14:01:42 14:05:45 39° 288° (WNW) 14:09:47 .
TISAT 1 05 Dec 14:04:56 14:09:07 58° 101° (E) 14:13:15 437.305
ITUPSAT 1 05 Dec 14:08:54 14:10:10 11° 91° (E) 14:11:25 437.325
BEESAT 3 05 Dec 14:14:06 14:17:45 33° 53° (NE) 14:21:21 437.485
SPROUT 05 Dec 14:17:13 14:19:54 16° 294° (WNW) 14:22:35 437.525
ITAMSAT 1 05 Dec 14:19:08 14:23:47 34° 69° (ENE) 14:28:26 435.822/435.867
JUGNU 05 Dec 14:24:04 14:26:12 12° 183° (S) 14:28:20 437.505
BEESAT 2 05 Dec 14:41:36 14:45:11 30° 52° (NE) 14:48:46 435.950
SWISSCUBE 05 Dec 15:12:23 15:17:06 64° 102° (ESE) 15:21:48 437.505
BEESAT 05 Dec 15:16:30 15:21:14 63° 102° (ESE) 15:25:56 436.000
AUBIESAT-1 05 Dec 15:16:37 15:21:08 53° 104° (ESE) 15:25:25 437.475
Gurwin Techsat 1B 05 Dec 15:24:23 15:27:07 14° 269° (W) 15:29:52 435.225
RS-15 05 Dec 15:25:00 15:35:53 33° 37° (NE) 15:46:29 29.354- 29.394
M-CUBED/EXP-1 PRIME 05 Dec 15:28:07 15:32:50 89° 121° (ESE) 15:37:20 437.505
TISAT 1 05 Dec 15:42:43 15:44:13 12° 296° (WNW) 15:45:41 437.305
ITUPSAT 1 05 Dec 15:43:42 15:48:26 69° 286° (WNW) 15:53:09 437.325
AO-7 05 Dec 15:43:47 15:52:04 74° 254° (WSW) 16:00:25 29.400- 29.500
BEESAT 3 05 Dec 15:52:16 15:55:08 19° 249° (WSW) 15:57:59 437.485
O/OREOS (USA 219) 05 Dec 15:52:53 15:56:34 24° 102° (ESE) 16:00:15 437.305
ITAMSAT 1 05 Dec 15:58:49 16:03:13 27° 264° (W) 16:07:39 435.822/435.867
ISS 05 Dec 15:59:09 16:01:32 19° 130° (SE) 16:03:54 145.825
SRMSAT 05 Dec 16:01:33 16:03:40 12° 178° (S) 16:05:47 437.500
BEESAT 2 05 Dec 16:19:41 16:22:49 22° 248° (WSW) 16:25:55 435.950
BRITE-PL 05 Dec 16:28:33 16:32:09 27° 69° (ENE) 16:35:58 437.365/2234.400
MOZHAYETS 4 05 Dec 16:28:43 16:33:18 90° 250° (WSW) 16:37:51
CUBESAT XI-V 05 Dec 16:31:32 16:33:36 13° 91° (E) 16:35:39 437.345
SWISSCUBE 05 Dec 16:52:06 16:54:19 13° 297° (WNW) 16:56:32 437.505
AUBIESAT-1 05 Dec 16:52:13 16:55:01 16° 301° (WNW) 16:57:46 437.475
BEESAT 05 Dec 16:56:09 16:58:27 14° 297° (WNW) 17:00:44 436.000
AIST 2 05 Dec 17:02:50 17:06:25 26° 51° (NE) 17:09:58 435.215
KKS-1 05 Dec 17:03:44 17:08:15 88° 106° (ESE) 17:12:43 437.445
M-CUBED/EXP-1 PRIME 05 Dec 17:05:29 17:06:30 11° 304° (NW) 17:07:31 437.505
STARS 05 Dec 17:11:37 17:15:55 47° 100° (E) 17:20:09 437.465
HORYU 2 05 Dec 17:14:26 17:18:55 78° 74° (ENE) 17:23:24 437.375
CUTE-I 05 Dec 17:27:40 17:32:22 32° 68° (ENE) 17:37:04 437.470
O/OREOS (USA 219) 05 Dec 17:31:48 17:35:48 30° 298° (WNW) 17:39:49 437.305
NOAA 18 05 Dec 17:32:05 17:36:25 24° 64° (ENE) 17:40:45 137.9125
ISS 05 Dec 17:34:40 17:37:48 41° 326° (NW) 17:40:58 145.825
RS-15 05 Dec 17:37:34 17:50:00 85° 242° (WSW) 18:01:56 29.354- 29.394
Cosmos 2491 05 Dec 17:39:18 17:46:36 29° 70° (ENE) 17:53:52 435.465 / 435.565
AO-7 05 Dec 17:43:17 17:46:04 12° 271° (W) 17:48:51 29.400- 29.500
GOMX 1 05 Dec 17:44:35 17:49:04 76° 76° (ENE) 17:53:55 467.674
SRMSAT 05 Dec 17:51:20 17:51:54 10° 189° (S) 17:52:29 437.500
NOAA 15 05 Dec 17:51:58 17:57:06 59° 72° (ENE) 18:02:15 137.62
Cubesat XI-IV 05 Dec 17:52:48 17:58:00 53° 72° (ENE) 18:03:14 437.490
DOVE 4 05 Dec 17:58:05 18:02:34 43° 72° (ENE) 18:07:19 437.250
CUBESAT XI-V 05 Dec 18:06:43 18:11:18 58° 286° (WNW) 18:15:54 437.345
BRITE-PL 05 Dec 18:07:14 18:10:38 23° 266° (W) 18:14:13 437.365/2234.400
YUBILEINY 05 Dec 18:08:06 18:13:11 17° 78° (ENE) 18:18:15 435.215
CANX-2 05 Dec 18:22:56 18:24:17 11° 64° (ENE) 18:25:38 2200.000
LilacSat-2 05 Dec 18:24:26 18:28:15 61° 260° (W) 18:32:05 437.200
AIST 2 05 Dec 18:41:11 18:44:51 29° 247° (WSW) 18:48:30 435.215
HO-68 05 Dec 18:41:49 18:48:07 35° 64° (ENE) 18:54:27 435.675
SEEDS 05 Dec 18:48:57 18:50:51 13° 65° (ENE) 18:52:44 437.485
STARS 05 Dec 18:49:17 18:51:50 15° 295° (WNW) 18:54:23 437.465
COMPASS 1 05 Dec 19:01:02 19:02:22 11° 65° (ENE) 19:03:43 437.405
CUTE-I 05 Dec 19:07:37 19:12:20 31° 264° (W) 19:17:03 437.470
NOAA 18 05 Dec 19:11:28 19:16:45 45° 261° (W) 19:22:03 137.9125
ISS 05 Dec 19:13:49 19:15:01 11° 345° (NNW) 19:16:12 145.825
CINEMA 3 05 Dec 19:20:10 19:25:03 79° 76° (ENE) 19:30:05 145.822/145.860
SO-50 05 Dec 19:28:17 19:30:47 14° 108° (ESE) 19:33:16 436.795
Cosmos 2504 05 Dec 19:33:03 19:40:05 32° 83° (E) 19:47:27 435.465 / 435.565
NOAA 15 05 Dec 19:34:13 19:37:14 15° 268° (W) 19:40:16 137.62
Cubesat XI-IV 05 Dec 19:34:47 19:38:22 18° 267° (W) 19:41:57 437.490
Cosmos 2491 05 Dec 19:35:25 19:43:53 58° 269° (W) 19:52:20 435.465 / 435.565
ZACube-1 05 Dec 19:35:31 19:36:42 11° 63° (ENE) 19:37:52 437.345
DOVE 4 05 Dec 19:37:09 19:40:28 19° 269° (W) 19:43:57 437.250
CUTE 1.7 + AOD 2 05 Dec 19:37:29 19:41:41 71° 75° (ENE) 19:45:53 437.475
CUBEBUG 2 05 Dec 19:42:23 19:46:40 34° 71° (ENE) 19:50:56 437.445
FUNcube-1 05 Dec 19:42:53 19:44:40 12° 64° (ENE) 19:46:26 145.935
RS-15 05 Dec 19:52:44 20:00:33 20° 262° (W) 20:08:14 29.354- 29.394
STRAND 1 05 Dec 19:53:18 19:58:20 58° 101° (E) 20:03:20 437.568
CANX-2 05 Dec 19:55:27 19:59:36 59° 259° (W) 20:03:46 2200.000
YUBILEINY 05 Dec 20:00:00 20:08:42 87° 276° (W) 20:17:30 435.215
AAUSAT CUBESAT 2 05 Dec 20:03:45 20:07:40 46° 74° (ENE) 20:11:37 437.432
Oscar 11 05 Dec 20:12:21 20:15:45 23° 69° (ENE) 20:19:10 145.826/435.025
SEEDS 05 Dec 20:22:02 20:26:05 50° 261° (W) 20:30:09 437.485
UWE-3 05 Dec 20:25:32 20:30:10 64° 75° (ENE) 20:34:45 435.000/436.395/437.385
HO-68 05 Dec 20:28:55 20:35:39 43° 261° (W) 20:42:25 435.675
CUSAT 1 05 Dec 20:33:03 20:36:28 33° 80° (E) 20:40:47 437.405
COMPASS 1 05 Dec 20:33:22 20:37:25 56° 260° (W) 20:41:29 437.405
AIST 1 05 Dec 20:41:40 20:45:56 66° 278° (W) 20:50:16
PCSat 05 Dec 21:01:08 21:06:21 46° 57° (ENE) 21:11:33 145.827
CINEMA 3 05 Dec 21:01:57 21:02:44 10° 272° (W) 21:03:31 145.822/145.860
HUMSAT D 05 Dec 21:05:51 21:08:33 17° 67° (ENE) 21:11:15 437.325/437.525
SO-50 05 Dec 21:06:01 21:10:45 62° 303° (WNW) 21:15:26 436.795
DELFI C3 05 Dec 21:06:51 21:10:18 30° 72° (ENE) 21:13:46 145.870
ZACube-1 05 Dec 21:07:48 21:12:22 73° 259° (WSW) 21:16:53 437.345
PRISM 05 Dec 21:11:44 21:15:04 23° 96° (E) 21:18:23 437.425
DANDE 05 Dec 21:15:37 21:17:34 16° 78° (ENE) 21:19:44 436.750
FUNcube-1 05 Dec 21:15:50 21:20:21 64° 259° (W) 21:24:49 145.935
CUBEBUG 2 05 Dec 21:19:32 21:23:17 23° 266° (W) 21:27:02 437.445
Cosmos 2504 05 Dec 21:24:56 21:32:58 53° 283° (WNW) 21:41:32 435.465 / 435.565
STRAND 1 05 Dec 21:33:53 21:37:00 17° 297° (WNW) 21:40:07 437.568
AAUSAT CUBESAT 2 05 Dec 21:41:40 21:43:23 12° 269° (W) 21:45:05 437.432
Oscar 11 05 Dec 21:48:01 21:51:44 28° 264° (W) 21:55:28 145.826/435.025
YUBILEINY 05 Dec 22:01:42 22:06:49 17° 297° (WNW) 22:12:00 435.215
UWE-3 05 Dec 22:05:19 22:06:57 12° 270° (W) 22:08:36 435.000/436.395/437.385
TIGRISAT 05 Dec 22:06:37 22:09:46 19° 93° (E) 22:12:52 435.000
ANTELSAT 05 Dec 22:07:48 22:11:09 21° 94° (E) 22:14:26 437.575/2403.000
ESTCUBE 1 05 Dec 22:13:03 22:15:26 14° 64° (ENE) 22:17:48 437.505/2401.250
CUSAT 1 05 Dec 22:15:51 22:18:17 16° 265° (W) 22:21:04 437.405
ISS 05 Dec 22:27:47 22:30:20 20° 26° (NNE) 22:32:52 145.825
HUMSAT D 05 Dec 22:39:56 22:43:51 37° 262° (W) 22:47:46 437.325/437.525
DELFI C3 05 Dec 22:42:34 22:45:10 17° 267° (W) 22:47:46 145.870
PCSat 05 Dec 22:45:16 22:49:24 23° 254° (WSW) 22:53:32 145.827
PRISM 05 Dec 22:46:48 22:50:17 26° 291° (WNW) 22:53:45 437.425
CUBEBUG 1 05 Dec 22:47:22 22:50:31 20° 67° (ENE) 22:53:40 437.445
VELOX 1 05 Dec 22:57:30 23:00:25 18° 66° (ENE) 23:03:22 145.980
DANDE 05 Dec 22:58:28 23:00:07 14° 265° (W) 23:01:55 436.750
UNISAT 6 05 Dec 23:12:06 23:16:30 68° 285° (WNW) 23:20:46 437.425
DX 1 05 Dec 23:12:49 23:15:00 14° 64° (ENE) 23:17:11 434.975-435.025
UKube-1 05 Dec 23:21:05 23:22:50 12° 63° (ENE) 23:24:37 .
SPROUT 05 Dec 23:32:23 23:35:57 26° 69° (ENE) 23:39:32 437.525
JAS-2 05 Dec 23:38:08 23:42:57 36° 98° (E) 23:47:58 435.910
TIGRISAT 05 Dec 23:42:35 23:46:32 33° 289° (WNW) 23:50:22 435.000
ANTELSAT 05 Dec 23:44:02 23:47:53 30° 290° (WNW) 23:51:39 437.575/2403.000
ESTCUBE 1 05 Dec 23:47:25 23:51:46 52° 260° (W) 23:56:09 437.505/2401.250
NANOSAT C BR1 05 Dec 23:54:00 23:57:47 31° 97° (E) 00:01:31 145.865
AISAT 05 Dec 23:55:07 23:59:31 81° 78° (ENE) 00:03:59 437.250
QB50P2 05 Dec 23:59:21 00:03:24 42° 99° (E) 00:07:24 145.880/145.840
POLYITAN 1 05 Dec 23:59:56 00:03:56 40° 98° (E) 00:07:53 437.675
ISS 06 Dec 00:03:48 00:07:03 56° 222° (SW) 00:10:17 145.825
50 SAT 06 Dec 00:05:01 00:08:31 86° 77° (ENE) 00:12:03 437.505
QB50P1 06 Dec 00:12:56 00:17:07 58° 100° (E) 00:21:16 145.935-145.965
DUCHIFAT 1 06 Dec 00:16:07 00:20:15 53° 100° (E) 00:24:20 145.980
CUBEBUG 1 06 Dec 00:22:35 00:26:32 34° 263° (W) 00:30:32 437.445
Cosmos 2499 06 Dec 00:25:47 00:33:24 38° 86° (E) 00:41:18 435.465 / 435.565
VELOX 1 06 Dec 00:32:25 00:36:33 40° 262° (W) 00:40:43 145.980
POPSAT HIP 1 06 Dec 00:34:24 00:38:39 80° 285° (WNW) 00:42:51 437.405
GONETS M04 06 Dec 00:38:13 00:46:09 41° 87° (E) 00:54:05
PHONESAT 2.4 06 Dec 00:38:25 00:40:43 26° 153° (SSE) 00:43:01 2401.200-2431.200
DX 1 06 Dec 00:46:29 00:50:43 52° 260° (W) 00:54:59 434.975-435.025
UKube-1 06 Dec 00:54:07 00:58:22 58° 259° (W) 01:02:38 .
TISAT 1 06 Dec 00:54:54 00:58:45 35° 71° (ENE) 01:02:38 437.305
SPROUT 06 Dec 01:08:16 01:11:47 24° 265° (W) 01:15:20 437.525
AO-85 06 Dec 01:12:09 01:14:06 12° 108° (ESE) 01:16:01 145.980
BUGSAT 1 06 Dec 01:14:10 01:18:23 86° 286° (WNW) 01:22:31 437.445
ITUPSAT 1 06 Dec 01:14:17 01:16:12 12° 62° (ENE) 01:18:08 437.325
JAS-2 06 Dec 01:23:46 01:27:53 24° 293° (WNW) 01:32:08 435.910
NANOSAT C BR1 06 Dec 01:30:11 01:33:17 20° 292° (WNW) 01:36:21 145.865
QB50P2 06 Dec 01:36:19 01:38:48 15° 294° (WNW) 01:41:18 145.880/145.840
POLYITAN 1 06 Dec 01:36:45 01:39:22 16° 294° (WNW) 01:41:58 437.675
QB50P1 06 Dec 01:50:49 01:52:21 12° 296° (WNW) 01:53:54 145.935-145.965
DUCHIFAT 1 06 Dec 01:53:37 01:55:26 13° 296° (WNW) 01:57:15 145.980
Gurwin Techsat 1B 06 Dec 01:59:40 02:04:14 29° 96° (E) 02:08:48 435.225
AUBIESAT-1 06 Dec 02:00:27 02:04:24 48° 68° (ENE) 02:08:38 437.475
O/OREOS (USA 219) 06 Dec 02:03:37 02:07:46 36° 64° (ENE) 02:11:53 437.305
Oscar 19 06 Dec 02:04:54 02:10:05 66° 102° (ESE) 02:15:14 437.125/150
M-CUBED/EXP-1 PRIME 06 Dec 02:12:24 02:16:26 84° 72° (ENE) 02:20:50 437.505
PHONESAT 2.4 06 Dec 02:13:10 02:15:49 70° 347° (NNW) 02:18:28 2401.200-2431.200
SWISSCUBE 06 Dec 02:17:06 02:21:48 62° 74° (ENE) 02:26:31 437.505
Cosmos 2499 06 Dec 02:18:12 02:26:17 46° 285° (WNW) 02:34:45 435.465 / 435.565
BEESAT 06 Dec 02:21:10 02:25:52 61° 74° (ENE) 02:30:35 436.000
TISAT 1 06 Dec 02:31:35 02:34:27 18° 266° (W) 02:37:22 437.305
GONETS M04 06 Dec 02:34:49 02:42:53 41° 286° (WNW) 02:50:58
ITAMSAT 1 06 Dec 02:35:12 02:37:23 13° 91° (E) 02:39:34 435.822/435.867
ITUPSAT 1 06 Dec 02:48:39 02:53:25 71° 258° (WSW) 02:58:12 437.325
